map of CJA home
Great Circle Mapper logo
CJA - Airport
Location
City:  Cajamarca, Cajamarca, Perú
Name:Major General FAP Armando Revoredo Iglesias
ICAO / IATA:SPJR / CJA

Details
Type:Airport (Aerodrome, Airfield)
Use:Public/Civil
Latitude:7°08'21"S (-7.139146)
Longitude:78°29'22"W (-78.489582)
Elevation:8848 ft (2697 m)
Variation:1.61°W (WMM2015 magnetic declination)
-0.16° annual change
Runways:1
Longest:8202 × 148 ft (2500 × 45 m), paved

Time
Time Zone:UTC-5
Local Time:

Weather
METAR:SPJR 272300Z VRB01KT CAVOK 19/10 Q1025 RMK BIRD HAZARD RWY 16/34 PP000
TAF:SPJR 271640Z 2718/2818 29010KT 9999 SCT037 BKN060 TX21/2719Z TN07/2811Z
TEMPO 2720/2722 9000 -RA SCT020 BKN050
FM280100 00000KT 9999 FEW033 BKN043
FM281700 04010KT 9999 FEW027 BKN043

Related Locations
Nearby:
Farthest:PAN: 12426 mi / 19997 km
Pattani, TH

Find:

   beyond  
but within

Other Information
Maps:
NOTAMs:
Links:
Sources:

  
flag of Perú
flag of Cajamarca
  

Sectional Chart

Flight Planning
at skyvector.com

Satellite Image

Google Maps Satellite View

 

Copyright © 2004-2015 Karl L. Swartz. All rights reserved.
The Great Circle Mapper name and logo are trademarks of the Great Circle Mapper.
All other trademarks mentioned herein belong to their respective owners.
Please see credits for attibutions and further copyright information.

  Follow gcmap on Facebook Follow gcmap on Twitter Follow gcmap on Google+

hCard Microformat

Geo Microformat